This is the latest recevied weather packets stored in our database for station/object OK2JF-6. If no packets are shown the sender has not sent any weather packets the latest 10 day(s).
| Time | Temp. | Humidity | Pressure | Rain* | Wind** | Luminosity | Snow |
|---|---|---|---|---|---|---|---|
| 1777969697 | 22.78° C | 40% | 1080.7 hPa | 0 mm | - | 409 W/m² | - |
| 1777969323 | 22.78° C | 40% | 1080.8 hPa | 0 mm | - | 397 W/m² | - |
| 1777969203 | 22.78° C | 40% | 1080.5 hPa | 0 mm | - | 396 W/m² | - |
| 1777969083 | 22.78° C | 39% | 1080.8 hPa | 0 mm | - | 391 W/m² | - |
| 1777968783 | 22.22° C | 41% | 1080.5 hPa | 0 mm | - | 381 W/m² | - |
| 1777968603 | 22.22° C | 40% | 1080.4 hPa | 0 mm | - | 379 W/m² | - |
| 1777968497 | 22.22° C | 41% | 1080.6 hPa | 0 mm | - | 377 W/m² | - |
| 1777967883 | 22.22° C | 40% | 1080.7 hPa | 0 mm | - | 352 W/m² | - |
| 1777967538 | 21.67° C | 40% | 1080.9 hPa | 0 mm | - | 345 W/m² | - |
| 1777966863 | 21.67° C | 40% | 1080.6 hPa | 0 mm | - | 325 W/m² | - |
| 1777966083 | 20.56° C | 41% | 1080.8 hPa | 0 mm | - | 322 W/m² | - |
| 1777965363 | 20° C | 41% | 1080.8 hPa | 0 mm | - | 204 W/m² | - |
| 1777965318 | 20° C | 41% | 1080.7 hPa | 0 mm | - | 217 W/m² | - |
| 1777965003 | 20° C | 42% | 1080.7 hPa | 0 mm | - | 272 W/m² | - |
| 1777963864 | 18.33° C | 45% | 1081.1 hPa | 0 mm | - | 271 W/m² | - |
| 1777963263 | 17.22° C | 47% | 1081.3 hPa | 0 mm | - | 177 W/m² | - |
| 1777963083 | 16.67° C | 48% | 1080.9 hPa | 0 mm | - | 117 W/m² | - |
| 1777963023 | 16.67° C | 48% | 1081.2 hPa | 0 mm | - | 186 W/m² | - |
| 1777962963 | 16.67° C | 48% | 1081.3 hPa | 0 mm | - | 160 W/m² | - |
| 1777962918 | 16.67° C | 48% | 1081.3 hPa | 0 mm | - | 159 W/m² | - |
| 1777962723 | 16.67° C | 48% | 1081.2 hPa | 0 mm | - | 119 W/m² | - |
| 1777962603 | 16.67° C | 48% | 1081.1 hPa | 0 mm | - | 155 W/m² | - |
| 1777962123 | 16.67° C | 48% | 1080.9 hPa | 0 mm | - | 142 W/m² | - |
| 1777962063 | 16.11° C | 49% | 1081.1 hPa | 0 mm | - | 137 W/m² | - |
| 1777961943 | 16.11° C | 48% | 1081.2 hPa | 0 mm | - | 122 W/m² | - |
* Rain latest hour (hover to see other rain measurements)
** Current wind speed in m/s (hover to see current wind gust speed)